Regional Weather Roundup
Issued by NWS Northern Indiana

Home | Current Version | Previous Version | Text Only | Print | Product List | Glossary On
Versions: 1 2 3 4 5 6 7 8 9 10 11 12 13 14 15 16 17 18 19 20 21 22 23 24 25 26 27 28 29 30 31 32 33 34 35 36 37 38 39 40 41 42 43 44 45 46 47 48 49 50
187
ASUS43 KIWX 250110
RWRIWX

KIWX WEATHER ROUNDUP
NATIONAL WEATHER SERVICE NORTHERN INDIANA
900 PM EDT WED AUG 24 2016

NOTE: "FAIR" INDICATES FEW OR NO CLOUDS BELOW 12,000 FEET WITH NO
SIGNIFICANT WEATHER AND/OR OBSTRUCTIONS TO VISIBILITY.

* THESE STATIONS ARE NOT UNDER NWS QUALITY CONTROL. THEY ALSO MAY NOT
  REPORT WEATHER SUCH AS PRECIPITATION OR FOG.

INZ001>027-250200-
NORTHERN INDIANA

CITY           SKY/WX    TMP DP  RH WIND       PRES   REMARKS
GARY*          PTCLDY    79  73  83 SW3       29.97R
VALPARAISO     CLEAR     76  70  82 SW7       29.99R
MICHIGAN CITY* CLEAR     73  73 100 MISG      29.97S
LAPORTE*       CLEAR     76  76 100 SW6       29.99R
KNOX*          CLEAR     73  52  46 W6        29.98R
SOUTH BEND     CLEAR     76  72  87 SW7       29.97S
ELKHART*       PTCLDY    75  72  88 SW7       29.97S
GOSHEN         CLEAR     73  68  84 S6        29.98R
MONTICELLO*    CLEAR     75  67  76 SW5       30.00R
LOGANSPORT*    CLOUDY    72  70  94 W5        30.01S
ROCHESTER*     PTCLDY    77  73  88 W6        30.00R
WARSAW*        CLEAR     73  73 100 CALM      29.99S FOG
ANGOLA*        PTCLDY    75  68  78 SW5       29.98S
FORT WAYNE     MOCLDY    75  73  93 SW5       29.99R
HUNTINGTON*    CLOUDY   N/A N/A N/A W5        30.00R
PERU/GRISSOM   PTCLDY    75  75 100 SW7       30.00R
MARION*        CLOUDY    73  73 100 SW6       30.02S

$$
INZ028>050-250200-
CENTRAL INDIANA

CITY           SKY/WX    TMP DP  RH WIND       PRES   REMARKS
LAFAYETTE      PTCLDY    76  73  91 W3        30.00R
MUNCIE*        CLOUDY    79  73  82 SW14      30.00S
INDIANAPOLIS   CLOUDY    79  74  84 SW8       30.03S

$$
MIZ043>046-050>051-056>058-064>065-071>073-077>080-250200-
SOUTHWEST LOWER MICHIGAN

CITY           SKY/WX    TMP DP  RH WIND       PRES   REMARKS
BATTLE CREEK   MOCLDY    73  73 100 W3        29.97S
BENTON HARBOR  CLEAR     75  70  84 W6        29.95R
COLDWATER*     CLOUDY    74  73  95 CALM      29.97S
HILLSDALE*     CLOUDY    74  72  91 SW5       29.99S
HOLLAND        CLEAR     73  70  90 SW5       29.95R
GRAND RAPIDS   CLOUDY    75  70  84 SW6       29.95S
KALAMAZOO      MOCLDY    77  72  84 SW5       29.96S
STURGIS*       MOCLDY    75  71  87 CALM      29.96F
THREE RIVERS*  LGT RAIN  76  73  90 CALM      29.96F

$$
OHZ001>008-015>018-024>025-250200-
NORTHWEST OHIO

CITY           SKY/WX    TMP DP  RH WIND       PRES   REMARKS
WAUSEON*       CLOUDY    75  73  94 SW8       29.98S
DEFIANCE       TSTM      73  70  90 S6        29.98F
FINDLAY        CLOUDY    79  71  76 S13       29.99S
TOLEDO EXPRESS RAIN      75  75 100 CALM      29.98S FOG
TOLEDO METCALF CLOUDY    78  74  87 S13       29.98R
LIMA           CLOUDY    77  74  90 S9        30.00F

$$
AND FOR LAKE MICHIGAN COASTAL AND OPEN LAKE BUOY OBSERVATIONS

STATION/POSITION TEMP    WIND        PRES    VSBY  WAVE
                 AIR SEA DIR/SP/G                  HT/PER
                 (F)     (DEG/KT/KT) (MB)    (MI)  (FT/S)
CALUMET HARBOR    82     230/  5/  9 1013.7R
MICHIGAN CITY     77     210/ 12/ 13   N/A
BURNS HARBOR      80     230/  8/ 13 1014.9R
SAINT JOSEPH      76     220/  8/  9 1014.9R
SOUTH LAKE BUOY   75 75  180/  8/ 10 1012.8R         2/ 5
4 MI NW BRIDGMAN  76 75  230/  8/ 10 1014.1R         1/ 3
MICHIGAN CITY     76 73  230/  8/ 10   N/A           1/ 3

$$
&&




USA.gov is the U.S. government's official web portal to all federal, state and local government web resources and services.